CAPE
1521 1508 1470 1442 1456 1444 1429 1387 1382 1329 1235 1168 1200 1175 990 741 667 666 672 631 590 587 560 512 465 417 281 158 120 9 92 83 0 0 0 0 0 0 0 0 0 0
1524 1490 1473 1471 1472 1451 1439 1435 1434 1307 1078 1004 1049 1059 953 815 738 708 682 617 569 504 486 459 449 352 232 151 145 108 79 0 0 0 0 0 0 0 0 0 0 0
1542 1524 1515 1527 1507 1493 1493 1469 1443 1374 1208 1030 1014 988 921 833 795 649 532 479 439 398 356 380 412 338 199 158 94 13 0 0 0 0 0 0 0 0 0 0 0 0
1552 1553 1549 1544 1530 1521 1500 1484 1437 1397 1277 1102 1032 972 853 803 654 506 454 430 331 298 294 360 367 241 162 112 0 0 0 0 0 0 0 0 0 0 0 0 0 0
1541 1543 1547 1539 1536 1513 1509 1474 1444 1363 1250 1103 1028 874 672 638 510 485 472 457 356 342 338 328 244 175 169 41 0 0 0 0 0 0 0 0 0 0 0 0 0 0
1506 1524 1520 1521 1514 1523 1510 1487 1429 1300 1182 1105 1033 907 714 654 495 514 535 420 375 296 312 235 190 208 18 0 0 0 0 0 0 0 0 0 0 0 0 0 0 0
1405 1453 1489 1493 1525 1528 1532 1471 1391 1280 1217 1151 985 885 715 700 609 548 489 369 310 316 278 253 267 119 10 0 0 0 0 0 0 0 0 0 0 0 0 0 0 0
1385 1423 1497 1540 1565 1547 1520 1441 1323 1272 1210 1149 932 725 709 712 529 492 403 289 315 306 288 313 237 12 4 0 0 0 0 0 0 0 0 0 0 0 0 0 0 0
1447 1413 1503 1566 1580 1561 1473 1350 1333 1310 1203 1126 1062 880 784 692 547 418 277 314 326 308 339 253 18 2 7 1 1 0 0 0 0 0 0 0 0 0 0 0 0 0
1520 1439 1484 1587 1598 1544 1446 1354 1350 1324 1219 1166 972 835 612 753 613 392 113 317 314 314 312 130 3 6 7 3 3 0 0 0 0 0 0 0 0 0 0 0 0 0
1542 1505 1472 1552 1556 1486 1421 1363 1327 1278 1214 1179 1029 842 720 659 614 462 330 286 290 298 254 126 2 6 11 10 2 0 0 0 0 0 0 0 0 0 0 0 0 0
1538 1518 1466 1514 1500 1435 1400 1375 1359 1329 1238 1126 950 811 669 642 568 453 290 287 282 250 142 2 3 7 12 8 0 0 0 0 0 0 0 0 0 0 0 0 0 5
1581 1516 1466 1480 1455 1393 1357 1298 1335 1371 1296 1111 948 679 618 624 473 397 262 280 244 159 60 0 0 2 4 0 0 0 0 0 0 0 0 0 0 0 0 0 0 0
1592 1530 1448 1415 1368 1302 1258 1248 1326 1382 1237 1062 944 710 512 448 444 303 270 223 168 101 6 0 0 0 0 0 0 0 0 0 0 0 0 0 0 0 0 0 0 0
1557 1550 1413 1303 1331 1306 1293 1355 1422 1331 1235 1066 929 759 611 553 438 308 192 97 0 0 0 0 0 0 0 0 0 0 0 0 0 0 0 0 0 0 0 0 0 0
1580 1532 1261 1364 1372 1291 1398 1501 1446 1366 1235 1074 937 751 567 497 378 279 105 76 24 0 0 0 0 0 0 0 0 0 0 0 0 0 0 0 0 0 0 0 0 0
1597 1504 1341 1462 1513 1545 1557 1510 1472 1419 1293 993 812 766 611 442 291 168 65 51 78 0 0 0 0 0 0 0 0 0 0 0 0 0 0 0 0 0 0 0 0 0
1594 1521 1454 1546 1569 1536 1471 1457 1458 1409 1298 1064 839 733 660 428 192 166 96 94 96 48 0 0 0 0 0 0 0 0 0 0 0 0 0 0 0 0 0 0 0 0
1520 1546 1550 1505 1507 1516 1450 1460 1484 1458 1234 1089 884 826 688 509 220 180 165 132 105 100 44 0 0 0 0 0 0 0 0 0 0 0 0 0 0 0 0 0 0 0
1392 1522 1543 1609 1652 1574 1603 1635 1444 1292 1147 1038 1005 876 672 541 169 179 160 131 118 87 39 0 0 0 0 0 0 0 0 0 0 0 0 0 0 0 0 0 0 0
1507 1557 1570 1553 1502 1453 1563 1513 1136 1087 960 952 984 950 775 543 161 170 139 112 89 43 11 0 0 0 0 0 0 0 0 0 0 0 0 0 0 0 1 7 11 14
1648 1679 1600 1425 1390 1314 1387 1514 1428 1104 864 889 1008 1009 845 508 213 187 134 101 64 19 4 2 0 0 0 0 0 0 0 0 0 0 0 0 0 18 27 27 15 15
1736 1760 1672 1597 1662 1652 1512 1420 1368 1329 965 901 998 998 831 526 217 176 104 82 30 6 6 5 1 0 0 0 0 0 0 0 0 0 0 0 3 14 13 11 26 10
1787 1827 1793 1761 1715 1617 1578 1357 1224 1286 1312 1122 1026 879 744 510 220 147 88 36 9 11 6 4 2 2 0 0 0 0 0 0 0 0 0 0 0 0 2 5 16 47
1793 1823 1853 1798 1837 1841 1579 1296 1226 1150 1026 919 938 820 729 482 208 143 71 15 7 6 2 2 3 4 1 0 0 0 0 0 0 0 0 0 0 41 13 29 8 22
1718 1690 1688 1860 1979 1855 1390 1199 1173 1213 953 875 848 807 676 450 180 134 48 9 8 9 5 5 6 5 2 0 0 0 0 35 110 10 9 5 6 12 36 22 5 0
Wind_Speed
25 25 25 25 26 26 26 26 23 24 25 26 25 24 25 26 26 26 27 28 28 28 28 29 29 29 27 27 28 nan nan nan nan nan nan nan nan nan nan nan nan nan
23 24 24 24 25 25 25 25 24 24 26 25 25 27 27 27 26 27 28 29 29 29 30 30 30 30 28 27 26 24 nan nan nan nan nan nan nan nan nan nan nan nan
23 24 24 25 25 25 26 25 25 24 25 25 27 27 27 26 27 27 28 29 30 31 30 30 30 28 27 25 nan nan nan nan nan nan nan nan nan nan nan nan nan nan
22 23 23 24 25 25 26 26 24 24 25 26 26 27 27 26 27 28 29 30 31 31 30 29 27 25 24 22 nan nan nan nan nan nan nan nan nan nan nan nan nan nan
24 22 22 23 23 25 25 24 23 23 24 25 28 29 27 26 26 28 30 31 31 30 29 27 24 22 21 nan nan nan nan nan nan nan nan nan nan nan nan nan nan nan
24 22 22 23 23 24 24 23 23 23 24 26 27 27 27 27 27 29 31 31 29 29 27 24 23 21 nan nan nan nan nan nan nan nan nan nan nan nan nan nan nan nan
25 23 22 22 22 23 24 23 22 22 24 27 26 26 27 27 28 29 30 29 28 26 25 23 23 23 nan nan nan nan nan nan nan nan nan nan nan nan nan nan nan nan
25 24 23 21 23 24 24 23 23 23 26 26 26 28 29 28 29 28 27 29 27 26 24 23 23 nan nan nan nan nan nan nan nan nan nan nan nan nan nan nan nan nan
26 23 22 22 23 23 23 23 23 25 25 26 27 29 28 27 29 27 27 28 27 25 24 23 nan nan nan nan nan nan nan nan nan nan nan nan nan nan nan nan nan nan
26 24 22 21 22 22 22 23 25 24 25 28 30 28 28 27 26 28 28 27 26 24 23 22 nan nan nan nan nan nan nan nan nan nan nan nan nan nan nan nan nan nan
26 24 21 21 22 22 22 24 25 24 26 29 30 31 30 30 27 27 28 26 25 24 22 21 nan nan nan nan nan nan nan nan nan nan nan nan nan nan nan nan nan nan
26 24 21 22 23 23 24 25 25 25 27 28 30 32 30 28 28 26 25 25 24 23 22 nan nan nan nan nan nan nan nan nan nan nan nan nan nan nan nan nan nan nan
26 23 22 23 23 24 25 26 25 26 30 31 30 28 27 26 25 27 24 24 23 23 nan nan nan nan nan nan nan nan nan nan nan nan nan nan nan nan nan nan nan nan
25 24 23 24 25 25 26 26 26 29 32 30 27 26 26 26 26 26 25 23 22 22 nan nan nan nan nan nan nan nan nan nan nan nan nan nan nan nan nan nan nan nan
27 25 25 26 26 26 27 27 27 30 31 29 27 26 26 26 27 27 26 nan nan nan nan nan nan nan nan nan nan nan nan nan nan nan nan nan nan nan nan nan nan nan
27 26 26 27 26 26 27 27 28 31 32 29 28 28 27 27 28 27 25 nan nan nan nan nan nan nan nan nan nan nan nan nan nan nan nan nan nan nan nan nan nan nan
28 27 27 27 26 27 27 27 29 30 30 30 30 30 30 29 28 27 nan nan nan nan nan nan nan nan nan nan nan nan nan nan nan nan nan nan nan nan nan nan nan nan
27 28 27 27 27 26 27 27 29 30 30 30 31 31 30 30 28 27 nan nan nan nan nan nan nan nan nan nan nan nan nan nan nan nan nan nan nan nan nan nan nan nan
28 28 28 28 27 26 27 29 30 30 31 31 30 30 31 30 28 29 27 26 25 25 nan nan nan nan nan nan nan nan nan nan nan nan nan nan nan nan nan nan nan nan
29 28 28 29 28 27 27 28 30 30 30 30 31 31 31 31 30 29 29 27 26 nan nan nan nan nan nan nan nan nan nan nan nan nan nan nan nan nan nan nan nan nan
29 28 29 29 27 26 27 28 30 31 31 31 31 31 32 32 31 30 28 28 nan nan nan nan nan nan nan nan nan nan nan nan nan nan nan nan nan nan nan nan nan nan
29 29 29 29 27 26 27 29 30 31 32 32 32 32 32 34 32 30 30 28 nan nan nan nan nan nan nan nan nan nan nan nan nan nan nan nan nan nan nan nan nan nan
29 29 29 29 27 26 27 30 32 32 32 33 34 33 34 34 32 30 29 nan nan nan nan nan nan nan nan nan nan nan nan nan nan nan nan nan nan nan nan nan nan nan
30 30 30 29 28 26 26 29 32 34 33 32 34 34 34 33 32 30 nan nan nan nan nan nan nan nan nan nan nan nan nan nan nan nan nan nan nan nan nan nan nan nan
31 31 31 30 27 25 27 30 32 33 34 33 32 33 34 33 31 29 nan nan nan nan nan nan nan nan nan nan nan nan nan nan nan nan nan nan nan nan nan nan nan nan
33 32 31 30 29 28 29 31 33 35 33 32 31 31 30 29 28 27 nan nan nan nan nan nan nan nan nan nan nan nan nan nan 34 nan nan nan nan nan nan nan nan nan
Wind_Direction
278 282 288 289 289 288 288 285 281 280 276 274 277 276 279 276 280 281 283 283 284 286 288 290 292 292 288 285 287 nan nan nan nan nan nan nan nan nan nan nan nan nan
281 286 287 286 284 284 283 282 279 279 278 277 276 275 273 278 280 283 285 285 284 285 288 290 291 291 288 285 288 284 nan nan nan nan nan nan nan nan nan nan nan nan
281 289 292 292 288 286 282 274 273 271 275 275 274 275 277 279 283 282 284 285 287 287 289 291 290 289 286 285 nan nan nan nan nan nan nan nan nan nan nan nan nan nan
282 289 290 288 285 284 277 273 269 267 269 273 277 277 278 280 282 284 284 285 286 287 289 290 289 286 284 284 nan nan nan nan nan nan nan nan nan nan nan nan nan nan
278 281 283 283 281 280 276 273 272 269 275 279 277 277 279 282 284 285 285 285 287 288 289 288 283 281 282 nan nan nan nan nan nan nan nan nan nan nan nan nan nan nan
271 277 282 284 283 280 273 270 269 272 275 279 280 277 279 284 287 289 288 288 287 289 289 284 279 275 nan nan nan nan nan nan nan nan nan nan nan nan nan nan nan nan
274 277 281 279 279 276 271 267 267 270 275 276 276 276 279 283 286 289 289 289 289 290 289 284 278 277 nan nan nan nan nan nan nan nan nan nan nan nan nan nan nan nan
273 274 278 277 277 272 269 268 269 270 275 282 279 277 281 284 287 286 286 289 290 290 287 281 278 nan nan nan nan nan nan nan nan nan nan nan nan nan nan nan nan nan
268 272 276 279 276 271 271 269 268 270 278 285 280 275 276 281 285 286 287 288 289 288 285 281 nan nan nan nan nan nan nan nan nan nan nan nan nan nan nan nan nan nan
269 269 276 276 275 270 272 268 266 272 279 277 276 279 276 272 279 283 286 288 289 288 285 282 nan nan nan nan nan nan nan nan nan nan nan nan nan nan nan nan nan nan
269 270 275 274 272 268 269 265 268 274 276 281 281 277 277 278 277 279 285 288 289 290 285 284 nan nan nan nan nan nan nan nan nan nan nan nan nan nan nan nan nan nan
268 269 273 272 271 268 265 264 267 272 275 275 277 276 274 277 280 280 284 288 287 287 284 nan nan nan nan nan nan nan nan nan nan nan nan nan nan nan nan nan nan nan
267 269 268 266 265 262 257 260 265 269 270 268 268 275 279 277 275 282 283 287 287 283 nan nan nan nan nan nan nan nan nan nan nan nan nan nan nan nan nan nan nan nan
264 262 261 261 259 257 256 258 262 265 268 270 273 275 277 279 282 284 282 283 284 282 nan nan nan nan nan nan nan nan nan nan nan nan nan nan nan nan nan nan nan nan
258 256 254 256 258 256 254 257 262 269 272 273 275 275 273 278 281 281 282 nan nan nan nan nan nan nan nan nan nan nan nan nan nan nan nan nan nan nan nan nan nan nan
254 252 253 255 257 256 256 259 264 270 271 272 274 275 276 278 282 281 281 nan nan nan nan nan nan nan nan nan nan nan nan nan nan nan nan nan nan nan nan nan nan nan
248 250 253 257 256 255 256 262 267 269 271 272 272 274 278 279 281 283 nan nan nan nan nan nan nan nan nan nan nan nan nan nan nan nan nan nan nan nan nan nan nan nan
245 248 252 255 255 255 258 262 266 270 271 272 271 273 274 277 281 283 nan nan nan nan nan nan nan nan nan nan nan nan nan nan nan nan nan nan nan nan nan nan nan nan
244 247 250 251 251 253 257 262 265 267 269 270 274 275 276 280 281 278 278 276 276 279 nan nan nan nan nan nan nan nan nan nan nan nan nan nan nan nan nan nan nan nan
245 247 248 249 248 249 254 263 268 269 268 268 270 273 278 278 277 277 274 275 276 nan nan nan nan nan nan nan nan nan nan nan nan nan nan nan nan nan nan nan nan nan
245 246 248 249 250 252 255 260 264 266 268 268 270 277 280 281 280 277 275 274 nan nan nan nan nan nan nan nan nan nan nan nan nan nan nan nan nan nan nan nan nan nan
246 247 248 249 251 255 260 262 262 266 269 267 269 272 275 275 273 273 274 275 nan nan nan nan nan nan nan nan nan nan nan nan nan nan nan nan nan nan nan nan nan nan
245 247 247 249 251 256 263 266 265 262 262 267 272 276 279 279 278 276 273 nan nan nan nan nan nan nan nan nan nan nan nan nan nan nan nan nan nan nan nan nan nan nan
243 244 246 248 251 257 262 262 264 265 267 270 277 281 282 282 279 274 nan nan nan nan nan nan nan nan nan nan nan nan nan nan nan nan nan nan nan nan nan nan nan nan
240 241 244 248 251 255 260 263 264 267 268 272 278 282 285 282 278 276 nan nan nan nan nan nan nan nan nan nan nan nan nan nan nan nan nan nan nan nan nan nan nan nan
236 238 242 247 252 254 250 254 259 263 268 275 279 282 282 281 278 277 nan nan nan nan nan nan nan nan nan nan nan nan nan nan 294 nan nan nan nan nan nan nan nan nan